Torna al catalogo

STARLINK-2031

AttivoComunicazioniVLEO
NORAD 47648·PAYLOAD·🇺🇸 United States

Lanciato Feb 16, 2021 da Cape Canaveral Space Force Station

Loading…

Prossimi Passaggi (prossime 24 ore)

TLE

AggiornatoSource: CelesTrak SupGP

Epoca: Sep 14, 2026, 12:29 UTC

1 47648C 21012AE  26257.52062500  .00010717  00000+0  34480-3 0  2571
2 47648  53.1569 250.7593 0001340  89.0733  83.2238 15.31681988    16

Traccia STARLINK-2031 in tempo reale con AllMySat

Download on the App Store